Crans Montana, Switzerland 16 day weather forecast

Slopes altitude range 1500 m - 3000m

Number of lifts: 28 Pistes: 140km

In some cases the lift and piste totals shown are for the ski domain (e.g. Three Valleys) rather than individual resort (e.g. Courchevel)

Overview

The 16 day weather forecast is fully updated 4 times every day.

    • Mon 22 APR 2019
    • Mon 22
    • 5C 13C
    • Tue 23 APR 2019
    • Tue 23
    • 5C 13C
    • Wed 24 APR 2019
    • Wed 24
    • 5C 13C
    • Thu 25 APR 2019
    • Thu 25
    • 4C 12C
    • Fri 26 APR 2019
    • Fri 26
    • -2C 0C
    • Sat 27 APR 2019
    • Sat 27
    • -2C 3C
    • Sun 28 APR 2019
    • Sun 28
    • 2C 9C
    • Mon 29 APR 2019
    • Mon 29
    • 4C 12C
    • Tue 30 APR 2019
    • Tue 30
    • 3C 9C
    • Wed 01 MAY 2019
    • Wed 01
    • 3C 11C
    • Thu 02 MAY 2019
    • Thu 02
    • 3C 13C
    • Fri 03 MAY 2019
    • Fri 03
    • 3C 21C
    • Sat 04 MAY 2019
    • Sat 04
    • 8C 21C
    • Sun 05 MAY 2019
    • Sun 05
    • 8C 15C
    • Mon 06 MAY 2019
    • Mon 06
    • 5C 12C
    • Tue 07 MAY 2019
    • Tue 07
    • 1C 8C

Date:

Time Type 0°C level Temp Chill Snow Cloud Speed Gust Dir Press
3:00 3079m 2°C 2_7 0cm 100% 7mph 8mph 1014mB
6:00 3000m 2°C 2_7 0cm 100% 7mph 9mph 1012mB
9:00 3128m 5°C 5_6 0cm 100% 6mph 9mph 1009mB
12:00 3028m 13°C 13_6 0cm 100% 6mph 7mph 1006mB
15:00 3095m 14°C 14_6 0cm 100% 6mph 7mph 1004mB
18:00 3058m 14°C 14_7 0cm 100% 7mph 8mph 1003mB
21:00 3153m 4°C 4_8 0cm 100% 8mph 10mph 1004mB
0:00 2953m 4°C 4_7 0cm 100% 7mph 9mph 1003mB
3:00 2809m 4°C 4_6 0cm 100% 6mph 7mph 1001mB
6:00 2765m 3°C 3_6 0cm 100% 6mph 8mph 1001mB
9:00 2698m 5°C 5_3 0cm 100% 3mph 5mph 1000mB
12:00 2792m 13°C 13_1 0cm 100% 1mph 3mph 1000mB
15:00 2778m 11°C 11_2 0cm 100% 2mph 4mph 999mB
18:00 2817m 11°C 11_4 0cm 100% 4mph 4mph 1000mB
21:00 2869m 4°C 4_6 0cm 100% 6mph 7mph 1003mB
0:00 2875m 3°C 3_7 0cm 100% 7mph 8mph 1004mB
3:00 2888m 3°C 3_7 0cm 85% 7mph 8mph 1005mB
6:00 2892m 2°C 2_8 0cm 90% 8mph 11mph 1006mB
9:00 2868m 5°C 5_8 0cm 97% 8mph 11mph 1006mB
12:00 2835m 13°C 13_4 0cm 96% 4mph 6mph 1007mB
15:00 2652m 11°C 11_3 0cm 100% 3mph 5mph 1008mB
18:00 2747m 11°C 11_5 0cm 86% 5mph 6mph 1011mB
21:00 2768m 2°C 2_7 0cm 5% 7mph 8mph 1014mB
0:00 3258m 2°C 2_9 0cm 44% 9mph 13mph 1014mB
3:00 3260m 2°C 2_9 0cm 68% 9mph 11mph 1014mB
6:00 2783m 1°C 1_9 0cm 41% 9mph 14mph 1014mB
9:00 2778m 4°C 4_10 0cm 20% 10mph 13mph 1014mB
12:00 2825m 12°C 12_8 0cm 61% 8mph 11mph 1013mB
15:00 2825m 12°C 12_7 0cm 100% 7mph 9mph 1013mB
18:00 2711m 12°C 12_4 0cm 100% 4mph 5mph 1014mB
21:00 2680m 3°C 3_5 0cm 98% 5mph 6mph 1016mB
0:00 2526m 1°C 1_1 0cm 94% 1mph 1mph 1017mB
3:00 1965m 1°C 1_6 2cm 81% 6mph 8mph 1016mB
6:00 1600m -1°C -1_5 6cm 91% 5mph 8mph 1018mB
9:00 1621m -2°C -2_1 4cm 100% 1mph 1mph 1020mB
12:00 1725m 0°C 0_4 4cm 100% 4mph 5mph 1020mB
15:00 1883m 2°C 2_3 1cm 100% 3mph 3mph 1020mB
18:00 1738m 2°C 2_3 2cm 96% 3mph 4mph 1022mB
21:00 1606m -1°C -1_3 2cm 100% 3mph 4mph 1026mB
0:00 1536m -2°C -2_3 2cm 100% 3mph 4mph 1027mB
3:00 1276m -3°C -3_2 1cm 92% 2mph 3mph 1028mB
6:00 1358m -6°C -6_4 1cm 59% 4mph 5mph 1029mB
9:00 1893m -2°C -2_3 0cm 62% 3mph 4mph 1027mB
12:00 2098m 3°C 3_3 1cm 80% 3mph 4mph 1026mB
15:00 2253m 4°C 4_3 1cm 92% 3mph 4mph 1025mB
18:00 2255m 4°C 4_2 0cm 83% 2mph 2mph 1026mB
21:00 2087m 0°C 0_5 0cm 76% 5mph 6mph 1029mB
0:00 2134m 0°C 0_6 0cm 80% 6mph 6mph 1029mB
3:00 2151m 0°C 0_5 1cm 91% 5mph 6mph 1028mB
6:00 2716m 0°C 0_5 1cm 95% 5mph 6mph 1027mB
9:00 2764m 2°C 2_3 0cm 86% 3mph 4mph 1025mB
12:00 2661m 9°C 9_3 0cm 58% 3mph 4mph 1024mB
15:00 2766m 9°C 9_4 0cm 30% 4mph 5mph 1022mB
18:00 2846m 9°C 9_2 0cm 21% 2mph 3mph 1022mB
21:00 2746m 2°C 2_5 0cm 35% 5mph 7mph 1023mB
0:00 2816m 1°C 1_7 0cm 43% 7mph 8mph 1022mB
3:00 2887m 1°C 1_7 0cm 99% 7mph 8mph 1020mB
6:00 2887m 1°C 1_7 0cm 99% 7mph 10mph 1018mB
9:00 2833m 4°C 4_6 0cm 100% 6mph 18mph 1015mB
12:00 2891m 12°C 12_12 0cm 98% 12mph 24mph 1012mB
15:00 2723m 18°C 18_19 0cm 99% 19mph 36mph 1009mB
18:00 2615m 18°C 18_9 0cm 99% 9mph 27mph 1010mB
21:00 2504m 9°C 9_6 0cm 100% 6mph 20mph 1010mB
0:00 2178m 7°C 7_7 0cm 100% 7mph 21mph 1010mB
3:00 1586m 5°C 5_8 0cm 100% 8mph 24mph 1010mB
6:00 1365m 3°C 3_8 0cm 100% 8mph 23mph 1011mB
9:00 1553m 3°C 3_12 0cm 64% 12mph 21mph 1011mB
12:00 1762m 9°C 9_12 0cm 71% 12mph 19mph 1011mB
15:00 1692m 9°C 9_8 0cm 99% 8mph 14mph 1011mB
18:00 1690m 9°C 9_3 0cm 97% 3mph 4mph 1012mB
21:00 1650m 2°C 2_5 0cm 94% 5mph 6mph 1015mB
0:00 1420m 0°C 0_5 0cm 47% 5mph 6mph 1016mB
3:00 1000m 0°C 0_5 0cm 0% 5mph 6mph 1016mB
6:00 1445m -1°C -1_3 0cm 0% 3mph 5mph 1016mB
9:00 1576m 3°C 3_4 0cm 3% 4mph 6mph 1015mB
12:00 1838m 11°C 11_6 0cm 41% 6mph 9mph 1013mB
15:00 1866m 11°C 11_6 0cm 93% 6mph 8mph 1012mB
18:00 1832m 11°C 11_1 0cm 77% 1mph 1mph 1013mB
21:00 1804m 2°C 2_4 0cm 62% 4mph 5mph 1015mB
0:00 1840m 2°C 2_3 0cm 79% 3mph 4mph 1013mB
Afternoon 0mm 0 1927m 13°C 13_5 0cm 77% 5mph 7mph 1010mB
Morning 0.00520833mm 0.0625 2154m 3°C 3_4 0cm 12% 4mph 5mph 1012mB
Afternoon 0mm 0 2491m 21°C 21_1 0cm 16% 1mph 6mph 1006mB
Morning 0mm 0 2761m 9°C 9_7 0cm 70% 7mph 13mph 1007mB
Afternoon 0mm 0 2777m 21°C 21_4 0cm 71% 4mph 8mph 1001mB
Morning 0.00520833mm 0 2941m 9°C 9_6 0cm 74% 6mph 9mph 1002mB
Afternoon 0.359375mm 2.125 2696m 15°C 15_4 0cm 63% 4mph 6mph 999mB
Morning 2.21354mm 0.5625 1943m 6°C 6_8 0cm 100% 8mph 18mph 1002mB
Afternoon 0.15625mm 0 1895m 12°C 12_13 0cm 100% 13mph 25mph 1005mB
Morning 0.0833333mm 0.4375 1233m 3°C 3_6 4cm 94% 6mph 12mph 1014mB
Afternoon 0.0729167mm 0.5 1389m 8°C 8_6 4cm 65% 6mph 9mph 1017mB
Morning 0.00520833mm 0.0625 715m -1°C -1_5 0cm 31% 5mph 6mph 1023mB

16 day outlook at a glance

Forecast issued: 22/04/2019 08:03:30

Chat

Your comments and questions. In a resort? Let us know what it's like!


Characters left 250

For terms and conditions see Readers Comments on the Cookie and privacy policy page.